Regional Weather Roundup
Issued by NWS

Home | Current Version | Previous Version | Text Only | Print | Product List | Glossary Off
Versions: 1 2 3 4 5 6 7 8 9 10 11 12 13 14 15 16 17 18 19 20 21 22 23 24 25 26 27 28 29 30 31 32 33 34 35 36 37 38 39 40 41 42 43 44 45 46 47 48 49 50

000
ASUS43 KDTX 241001
RWRMI
MICHIGAN HOURLY REGIONAL WEATHER ROUNDUP
NATIONAL WEATHER SERVICE DETROIT/PONTIAC MI
500 AM EST FRI NOV 24 2017

NOTE: "FAIR" INDICATES FEW OR NO CLOUDS BELOW 12,000 FEET WITH NO
SIGNIFICANT WEATHER AND/OR OBSTRUCTION TO VISIBILITY.

MIZ047>049-052>055-059>063-066>070-074>076-081>083-241100-
SOUTHEAST LOWER MICHIGAN

CITY           SKY/WX    TMP DP  RH WIND       PRES   REMARKS
ADRIAN         CLEAR     27  23  85 SW6       29.89F WCI  20
ALMA           CLEAR     32  28  83 SW7       29.81R WCI  26
ANN ARBOR      CLEAR     27  23  85 S5        29.87F WCI  22
BAD AXE        CLEAR     32  24  73 S12       29.79F WCI  23
CARO           CLEAR     32  25  76 S7        29.79F WCI  26
DETROIT CITY   CLEAR     31  25  78 S3        29.89F
DETROIT        PTCLDY    30  25  81 S7        29.89F WCI  23
FLINT          CLEAR     35  23  61 SW9       29.83F WCI  28
GROSSE ILE     CLEAR     33  27  77 SW8       29.89F WCI  26
HILLSDALE      CLEAR     32  23  69 S7        29.84F WCI  26
HOWELL         CLEAR     32  25  74 S6        29.83F WCI  26

CITY           SKY/WX    TMP DP  RH WIND       PRES   REMARKS
JACKSON        CLEAR     33  22  63 S6        29.84F WCI  28
LAMBERTVILLE   CLEAR     33  26  75 S6        29.90F WCI  27
LANSING        CLEAR     33  25  72 S8        29.82F WCI  26
LAPEER         FAIR      32  24  73 S7        29.83F WCI  26
MASON          CLEAR     33  25  70 CALM      29.83F
MONROE         CLEAR     30  25  80 S6        29.89F WCI  24
MT. CLEMENS    CLEAR     30  26  86 S8        29.86F WCI  22
PONTIAC        CLEAR     31  25  78 S6        29.84F WCI  25
PORT HOPE        N/A     34  24  67 VRB3      29.78F
PORT HURON     CLEAR     32  25  74 S6        29.86F WCI  26
TRI CITIES     CLEAR     34  26  72 S12       29.80F WCI  25
MIDLAND        FAIR      32  26  78 S5        29.79R WCI  27
TROY           CLEAR     33  25  72 S7        29.88F WCI  27
SAGINAW HB     CLEAR     34  27  75 S12       29.79F WCI  25
$$
MIZ043>046-050>051-056>058-064>065-071>073-077>080-241100-
SOUTHWEST LOWER MICHIGAN

CITY           SKY/WX    TMP DP  RH WIND       PRES   REMARKS
BATTLE CREEK   CLEAR     31  24  75 S8        29.84F WCI  23
BENTON HARBOR  CLEAR     34  25  69 S8        29.83F WCI  27
BIG RAPIDS     CLOUDY    30  28  91 S5        29.74F WCI  25
COLDWATER      CLEAR     33  22  65 SW6       29.85F WCI  28
FREMONT        CLOUDY    32  31  95 S6        29.76S WCI  27
HOLLAND        CLEAR     33  27  78 S8        29.81F WCI  26
GRAND RAPIDS   CLEAR     33  27  78 S7        29.80F WCI  27
IONIA          FAIR      34  26  72 S12       29.80S WCI  25
KALAMAZOO      CLEAR     31  23  72 S9        29.84F WCI  23
LUDINGTON      CLEAR     42  33  70 SW18G24   29.71F
MARSHALL       CLEAR     33  23  68 S5        29.84F WCI  28
MOUNT PLEASANT CLEAR     32  25  75 S5        29.77F WCI  27
MUSKEGON       CLEAR     44  35  70 SW16      29.78F
SOUTH HAVEN    CLEAR     35  26  70 S6        29.82F WCI  30
$$
MIZ016>042-241100-
NORTHERN LOWER MICHIGAN

CITY           SKY/WX    TMP DP  RH WIND       PRES   REMARKS
ALPENA         MIX PCPN  32  29  88 S7        29.70F WCI  26
BEAVER ISLAND  PTCLDY    43  36  74 SW16G25   29.58F
BELLAIRE       CLOUDY    37  32  84 S5        29.67F WCI  33
CADILLAC       CLOUDY    33  30  89 SW12G17   29.69S WCI  24
CHARLEVOIX     MOCLDY    37  31  78 S10       29.66F WCI  30
FRANKFORT      CLOUDY    42  34  71 S14       29.67F
GAYLORD        CLOUDY    34  27  75 SW10G21   29.64F WCI  26
GRAYLING       CLOUDY    34  28  78 SW10G17   29.69F WCI  26
HARBOR SPRINGS CLOUDY    38  31  75 SW12      29.63F WCI  30
HOUGHTON LAKE  CLOUDY    33  28  81 S9        29.70F WCI  25
MANISTEE       CLOUDY    33  28  81 SE5       29.70F WCI  29
OSCODA         MOCLDY    32  26  77 S6        29.74F WCI  26
PELLSTON       CLOUDY    38  29  70 S8        29.62F WCI  32
ROGERS CITY    CLOUDY    33  28  80 S8        29.67F WCI  26
TRAVERSE CITY  CLOUDY    39  30  70 SW9G18    29.65F WCI  33
$$
MIZ007>008-015-241100-
EASTERN UPPER MICHIGAN

CITY           SKY/WX    TMP DP  RH WIND       PRES   REMARKS
KINROSS        CLOUDY    36  30  79 S13G21    29.56  WCI  27
MACKINAC ISLAN CLOUDY    38  29  70 S14       29.60F WCI  30
NEWBERRY       CLOUDY    39  35  84 S22G28    29.51F WCI  29
S. S. MARIE    CLOUDY    36  29  75 SE9       29.56F WCI  29
MUNISING         N/A     41  31  67 S16G26    29.43F
$$
MIZ004>006-011>014-085-241100-
CENTRAL UPPER MICHIGAN

CITY           SKY/WX    TMP DP  RH WIND       PRES   REMARKS
MANISTIQUE     CLOUDY    41  32  69 S18G26    29.52F
MENOMINEE      PTCLDY    38  28  67 SW12      29.57F WCI  30
SAWYER-GWINN   CLOUDY    35  27  71 S17       29.44F WCI  25
$$
MIZ001>003-009>011-084-241100-
WESTERN UPPER MICHIGAN

CITY           SKY/WX    TMP DP  RH WIND       PRES   REMARKS
IRON MOUNTAIN  CLOUDY    37  24  59 S7        29.45F WCI  32
HOUGHTON       PTCLDY    41  29  62 SW9       29.30F
COPPER HARBOR    N/A     42  28  57 SW13G25   29.28F
IRONWOOD       PTCLDY    44  32  62 SW15G23   29.37F
$$

ABBREVIATIONS USED IN REMARKS
   TC - TEMPERATURE IN CELSIUS
  WCI - WIND CHILL INDEX
   HX - HEAT INDEX
  VSB - VISIBILITY





USA.gov is the U.S. government's official web portal to all federal, state and local government web resources and services.